Location: ??
(35.5653°N, 139.6194°E)
Time: 13:51:22
(UTC+00:00)

Delta 2 Rocket - Pass Details

Date: 20 November 2019
Orbit: 416 x 810 km, 35.6° (Epoch: 10 December)

Event Time Altitude Azimuth Distance (km) Brightness Sun altitude
Exits shadow 20:16:11 21° 272° (W) 1,350 4.7 -13.5°
Maximum altitude 20:19:10 88° 5° (N) 629 3.5 -12.9°
Drops below altitude 10° 20:24:09 10° 91° (E) 2,129 7.7 -11.9°
Sets 20:26:42 0° 92° (E) 3,111 8.9 -11.4°
